Bergamot Ace — ZGAS5 — position and weather

sailwx.info

Track history (hours):
 
Tides and Currents Weather Stations Pressure Air Temp Water Temp Dewpoint Dewpoint Depression Visibility Wind Speed Wind Dir Waves Ship Positions

Bergamot Ace

Last reported at 2014-Jul-25 13:17 UTC. Time now 2014-Jul-26 17:17 UTC.
Position S 28°21' E 032°33'.

Length 186 m; draft 6.5 m.

Type: Cargo ship. MMSI: 319740000.

Date/timePositionNaut miles runAvg speedWind from/ knotsBaromVisibWave heightAir tempDewpointWater temp
2014-Jul-25 13:17S 28°21' E 032°33'1112.7
2014-Jul-25 12:24S 28°32' E 032°28'1112.7
2014-Jul-25 11:33S 28°42' E 032°24'1313.2
2014-Jul-25 10:33S 28°54' E 032°20'1312.6
2014-Jul-25 09:33S 29°05' E 032°12'1313.3
2014-Jul-25 08:33S 29°14' E 032°01'1615.5
2014-Jul-25 07:33S 29°25' E 031°48'1716.3
2014-Jul-25 06:32S 29°38' E 031°36'1717.6
2014-Jul-25 05:33S 29°51' E 031°23'1918.9
2014-Jul-25 04:33S 30°06' E 031°10'1919.4
2014-Jul-25 03:33S 30°22' E 030°57'2220.0
2014-Jul-25 02:27S 30°39' E 030°42'1818.7
2014-Jul-25 01:30S 30°55' E 030°31'1516.4
2014-Jul-25 00:33S 31°09' E 030°24'1514.7
2014-Jul-24 23:32S 31°21' E 030°13'1814.0
2014-Jul-24 22:17S 31°34' E 030°00'23014.6
2014-Jul-24 06:28S 33°58' E 026°26'27015.0
2014-Jul-23 12:32S 34°38' E 021°03'10613.4
2014-Jul-23 04:33S 34°42' E 018°54'1514.6
2014-Jul-23 03:34S 34°36' E 018°38'1413.5
2014-Jul-23 02:32S 34°28' E 018°24'1513.3
2014-Jul-23 01:26S 34°16' E 018°15'1314.8
2014-Jul-23 00:34S 34°04' E 018°08'1914.7
2014-Jul-22 23:17S 33°47' E 017°60'1715.2
2014-Jul-22 22:11S 33°31' E 017°52'5314.6
2014-Jul-22 18:32S 32°43' E 017°26'  
Track history (hours):
 
Tides and Currents Weather Stations Pressure Air Temp Water Temp Dewpoint Dewpoint Depression Visibility Wind Speed Wind Dir Waves Ship Positions

Bergamot Ace

Last reported at 2014-Jul-25 13:17 UTC. Time now 2014-Jul-26 17:17 UTC.
Position S 28°21' E 032°33'.

Length 186 m; draft 6.5 m.

Type: Cargo ship. MMSI: 319740000.

Date/timePositionNaut miles runAvg speedWind from/ knotsBaromVisibWave heightAir tempDewpointWater temp
2014-Jul-25 13:17S 28°21' E 032°33'1112.7
2014-Jul-25 12:24S 28°32' E 032°28'1112.7
2014-Jul-25 11:33S 28°42' E 032°24'1313.2
2014-Jul-25 10:33S 28°54' E 032°20'1312.6
2014-Jul-25 09:33S 29°05' E 032°12'1313.3
2014-Jul-25 08:33S 29°14' E 032°01'1615.5
2014-Jul-25 07:33S 29°25' E 031°48'1716.3
2014-Jul-25 06:32S 29°38' E 031°36'1717.6
2014-Jul-25 05:33S 29°51' E 031°23'1918.9
2014-Jul-25 04:33S 30°06' E 031°10'1919.4
2014-Jul-25 03:33S 30°22' E 030°57'2220.0
2014-Jul-25 02:27S 30°39' E 030°42'1818.7
2014-Jul-25 01:30S 30°55' E 030°31'1516.4
2014-Jul-25 00:33S 31°09' E 030°24'1514.7
2014-Jul-24 23:32S 31°21' E 030°13'1814.0
2014-Jul-24 22:17S 31°34' E 030°00'23014.6
2014-Jul-24 06:28S 33°58' E 026°26'27015.0
2014-Jul-23 12:32S 34°38' E 021°03'10613.4
2014-Jul-23 04:33S 34°42' E 018°54'1514.6
2014-Jul-23 03:34S 34°36' E 018°38'1413.5
2014-Jul-23 02:32S 34°28' E 018°24'1513.3
2014-Jul-23 01:26S 34°16' E 018°15'1314.8
2014-Jul-23 00:34S 34°04' E 018°08'1914.7
2014-Jul-22 23:17S 33°47' E 017°60'1715.2
2014-Jul-22 22:11S 33°31' E 017°52'5314.6
2014-Jul-22 18:32S 32°43' E 017°26'  

Dump ship's entire track history